TimeCST,TemperatureF,Dew PointF,Humidity,Sea Level PressureIn,VisibilityMPH,Wind Direction,Wind SpeedMPH,Gust SpeedMPH,PrecipitationIn,Events,Conditions,WindDirDegrees,DateUTC
12:15 AM,23.0,12.2,63,30.34,-9999.0,NW,8.1,-,N/A,,Overcast,310,2013-03-06 06:15:00
12:35 AM,23.0,14.0,68,30.34,-9999.0,NW,11.5,-,N/A,,Overcast,320,2013-03-06 06:35:00
12:55 AM,23.0,14.0,68,30.35,-9999.0,NNW,10.4,-,N/A,,Overcast,330,2013-03-06 06:55:00
1:15 AM,23.0,14.0,68,30.36,-9999.0,NNW,10.4,-,N/A,,Overcast,330,2013-03-06 07:15:00
1:35 AM,21.2,12.2,68,30.36,-9999.0,NNW,9.2,-,N/A,,Overcast,330,2013-03-06 07:35:00
1:55 AM,19.4,10.4,68,30.36,-9999.0,NW,8.1,-,N/A,,Scattered Clouds,310,2013-03-06 07:55:00
2:15 AM,19.4,10.4,68,30.37,-9999.0,WNW,6.9,-,N/A,,Clear,300,2013-03-06 08:15:00
2:35 AM,17.6,10.4,73,30.37,-9999.0,WNW,6.9,-,N/A,,Scattered Clouds,290,2013-03-06 08:35:00
2:55 AM,17.6,8.6,68,30.37,-9999.0,WNW,6.9,-,N/A,,Scattered Clouds,290,2013-03-06 08:55:00
3:15 AM,17.6,10.4,73,30.37,-9999.0,WNW,6.9,-,N/A,,Scattered Clouds,300,2013-03-06 09:15:00
3:35 AM,15.8,8.6,73,30.37,-9999.0,WNW,5.8,-,N/A,,Clear,300,2013-03-06 09:35:00
3:56 AM,15.8,6.8,68,30.37,-9999.0,WNW,4.6,-,N/A,,Scattered Clouds,290,2013-03-06 09:56:00
4:15 AM,12.2,5.0,73,30.37,-9999.0,WNW,5.8,-,N/A,,Scattered Clouds,290,2013-03-06 10:15:00
4:35 AM,10.4,1.4,67,30.37,-9999.0,West,4.6,-,N/A,,Scattered Clouds,270,2013-03-06 10:35:00
4:56 AM,10.4,1.4,67,30.38,-9999.0,WNW,3.5,-,N/A,,Clear,290,2013-03-06 10:56:00
5:15 AM,10.4,1.4,67,30.38,-9999.0,West,3.5,-,N/A,,Clear,270,2013-03-06 11:15:00
5:35 AM,10.4,3.2,73,30.39,-9999.0,Calm,Calm,-,N/A,,Mostly Cloudy,0,2013-03-06 11:35:00
5:55 AM,12.2,5.0,73,30.40,-9999.0,WNW,3.5,-,N/A,,Overcast,300,2013-03-06 11:55:00
6:15 AM,14.0,6.8,73,30.39,-9999.0,NW,3.5,-,N/A,,Overcast,310,2013-03-06 12:15:00
6:35 AM,15.8,6.8,68,30.41,-9999.0,Calm,Calm,-,N/A,,Overcast,0,2013-03-06 12:35:00
6:53 AM,15.8,8.6,73,30.40,-9999.0,NW,3.5,-,N/A,,Overcast,320,2013-03-06 12:53:00
7:15 AM,17.6,10.4,73,30.41,-9999.0,NW,3.5,-,N/A,,Overcast,310,2013-03-06 13:15:00
7:35 AM,19.4,10.4,68,30.41,-9999.0,Calm,Calm,-,N/A,,Overcast,0,2013-03-06 13:35:00
7:55 AM,19.4,10.4,68,30.41,-9999.0,NW,4.6,-,N/A,,Overcast,310,2013-03-06 13:55:00
8:15 AM,19.4,12.2,74,30.41,-9999.0,NW,3.5,-,N/A,,Overcast,320,2013-03-06 14:15:00
8:35 AM,19.4,12.2,74,30.41,-9999.0,NNW,3.5,-,N/A,,Overcast,330,2013-03-06 14:35:00
8:55 AM,19.4,12.2,74,30.42,-9999.0,NW,3.5,-,N/A,,Overcast,310,2013-03-06 14:55:00
9:15 AM,21.2,12.2,68,30.42,-9999.0,NW,3.5,-,N/A,,Overcast,310,2013-03-06 15:15:00
9:35 AM,21.2,14.0,74,30.42,-9999.0,NW,3.5,-,N/A,,Overcast,310,2013-03-06 15:35:00
9:56 AM,23.0,15.8,74,30.41,-9999.0,Calm,Calm,-,N/A,,Overcast,0,2013-03-06 15:56:00
10:15 AM,24.8,15.8,69,30.41,-9999.0,Calm,Calm,-,N/A,,Overcast,0,2013-03-06 16:15:00
10:35 AM,24.8,15.8,69,30.41,-9999.0,NW,4.6,-,N/A,,Overcast,320,2013-03-06 16:35:00
10:56 AM,26.6,14.0,59,30.41,-9999.0,NNW,4.6,-,N/A,,Overcast,340,2013-03-06 16:56:00
11:15 AM,26.6,12.2,55,30.41,-9999.0,NW,6.9,-,N/A,,Overcast,320,2013-03-06 17:15:00
11:35 AM,26.6,12.2,55,30.41,-9999.0,NW,8.1,-,N/A,,Overcast,320,2013-03-06 17:35:00
11:56 AM,26.6,12.2,55,30.41,-9999.0,NW,3.5,-,N/A,,Overcast,320,2013-03-06 17:56:00
12:15 PM,26.6,12.2,55,30.40,-9999.0,NW,3.5,-,N/A,,Overcast,320,2013-03-06 18:15:00
12:35 PM,26.6,12.2,55,30.39,-9999.0,WNW,4.6,-,N/A,,Overcast,300,2013-03-06 18:35:00
12:56 PM,26.6,12.2,55,30.39,-9999.0,WSW,3.5,-,N/A,,Overcast,250,2013-03-06 18:56:00
1:15 PM,26.6,10.4,51,30.38,-9999.0,Calm,Calm,-,N/A,,Overcast,0,2013-03-06 19:15:00
1:35 PM,26.6,12.2,55,30.38,-9999.0,West,4.6,-,N/A,,Overcast,270,2013-03-06 19:35:00
1:56 PM,26.6,12.2,55,30.37,-9999.0,Calm,Calm,-,N/A,,Overcast,0,2013-03-06 19:56:00
2:15 PM,26.6,12.2,55,30.37,-9999.0,West,4.6,-,N/A,,Overcast,280,2013-03-06 20:15:00
2:35 PM,26.6,12.2,55,30.36,-9999.0,SW,5.8,-,N/A,,Overcast,230,2013-03-06 20:35:00
2:56 PM,26.6,12.2,55,30.37,-9999.0,SW,5.8,-,N/A,,Overcast,230,2013-03-06 20:56:00
3:15 PM,26.6,10.4,51,30.36,-9999.0,Calm,Calm,-,N/A,,Overcast,0,2013-03-06 21:15:00
3:35 PM,26.6,10.4,51,30.36,-9999.0,Calm,Calm,-,N/A,,Overcast,0,2013-03-06 21:35:00
3:56 PM,24.8,10.4,54,30.36,-9999.0,Calm,Calm,-,N/A,,Overcast,0,2013-03-06 21:56:00
4:15 PM,26.6,12.2,55,30.36,-9999.0,SW,4.6,-,N/A,,Unknown,230,2013-03-06 22:15:00
4:35 PM,24.8,12.2,59,30.36,-9999.0,SW,4.6,-,N/A,,Overcast,220,2013-03-06 22:35:00
4:55 PM,24.8,10.4,54,30.36,-9999.0,Calm,Calm,-,N/A,,Overcast,0,2013-03-06 22:55:00
5:16 PM,24.8,12.2,59,30.35,-9999.0,Calm,Calm,-,N/A,,Overcast,0,2013-03-06 23:16:00
5:35 PM,24.8,12.2,59,30.35,-9999.0,WNW,3.5,-,N/A,,Overcast,290,2013-03-06 23:35:00
5:55 PM,24.8,12.2,59,30.35,-9999.0,Calm,Calm,-,N/A,,Overcast,0,2013-03-06 23:55:00
6:14 PM,24.8,12.2,59,30.34,-9999.0,Calm,Calm,-,N/A,,Overcast,0,2013-03-07 00:14:00
6:35 PM,24.8,12.2,59,30.34,-9999.0,ESE,3.5,-,N/A,,Overcast,120,2013-03-07 00:35:00
6:55 PM,24.8,12.2,59,30.34,-9999.0,Calm,Calm,-,N/A,,Overcast,0,2013-03-07 00:55:00
7:15 PM,24.8,12.2,59,30.34,-9999.0,SE,3.5,-,N/A,,Overcast,140,2013-03-07 01:15:00
7:35 PM,23.0,10.4,59,30.33,-9999.0,Calm,Calm,-,N/A,,Overcast,0,2013-03-07 01:35:00
7:55 PM,21.2,10.4,63,30.33,-9999.0,SE,3.5,-,N/A,,Overcast,130,2013-03-07 01:55:00
8:35 PM,19.4,8.6,63,30.32,-9999.0,SE,4.6,-,N/A,,Overcast,140,2013-03-07 02:35:00
8:55 PM,21.2,12.2,68,30.33,-9999.0,ESE,5.8,-,N/A,,Overcast,120,2013-03-07 02:55:00
9:15 PM,21.2,10.4,63,30.34,-9999.0,SSE,4.6,-,N/A,,Overcast,150,2013-03-07 03:15:00
9:35 PM,21.2,10.4,63,30.33,-9999.0,SE,4.6,-,N/A,,Overcast,130,2013-03-07 03:35:00
9:55 PM,21.2,12.2,68,30.34,-9999.0,SE,5.8,-,N/A,,Overcast,140,2013-03-07 03:55:00
10:16 PM,21.2,12.2,68,30.35,-9999.0,Calm,Calm,-,N/A,,Overcast,0,2013-03-07 04:16:00
10:35 PM,21.2,12.2,68,30.35,-9999.0,SE,3.5,-,N/A,,Overcast,130,2013-03-07 04:35:00
10:55 PM,21.2,12.2,68,30.34,-9999.0,SE,3.5,-,N/A,,Overcast,130,2013-03-07 04:55:00
11:15 PM,21.2,10.4,63,30.34,-9999.0,ESE,6.9,-,N/A,,Overcast,120,2013-03-07 05:15:00
11:35 PM,19.4,10.4,68,30.34,-9999.0,Calm,Calm,-,N/A,,Overcast,0,2013-03-07 05:35:00
11:55 PM,19.4,10.4,68,30.34,-9999.0,SSE,5.8,-,N/A,,Overcast,160,2013-03-07 05:55:00